Location: Antioch Baptist Church
(32.6696°N, 85.7327°W)
Time: 00:49:30
(UTC+00:00)

USA 267 - Pass Details

Date: 14 July 2020
Orbit: 1102 x 1106 km, 123.0° (Epoch: 09 August)

Event Time Altitude Azimuth Distance (km) Brightness Sun altitude
Exits shadow 05:54:07 50° 52° (NE) 1,368 3.8 -35.7°
Maximum altitude 05:54:28 51° 41° (NE) 1,360 3.8 -35.7°
Drops below altitude 10° 06:00:44 10° 328° (NNW) 2,960 6.1 -35.7°
Sets 06:03:16 0° 324° (NW) 3,920 6.8 -35.6°
